Theta_e
343 343 342 343 343 342 341 341 340 340 339 340 340 341 340 340 341 340 339 340 340 341 342 342 343 342 343 343 340 343 343 344 343 342 343 346 345 344 345 345 344 348 346
342 342 341 344 342 340 341 340 340 339 339 339 339 339 339 339 339 338 339 339 339 338 338 339 341 341 342 343 342 339 340 341 343 343 344 338 345 347 342 343 346 348 344
343 341 341 341 341 341 340 336 336 337 339 339 339 338 338 337 337 338 338 338 339 338 337 337 337 338 341 341 340 339 339 339 340 343 343 345 345 346 346 341 343 343 343
342 342 342 338 339 338 334 335 332 333 331 330 333 332 330 331 330 330 330 329 328 329 332 334 334 335 337 338 339 339 339 339 339 340 341 342 344 344 345 343 340 341 341
341 341 341 335 335 333 331 328 327 329 331 330 330 330 326 324 323 324 325 324 325 326 325 325 327 328 330 332 334 337 338 338 339 339 339 339 342 341 343 344 343 339 342
341 341 338 334 334 329 325 325 325 328 329 329 329 328 325 324 321 323 324 324 325 325 325 325 324 324 323 325 327 328 329 334 336 338 338 338 341 340 341 341 344 343 340
340 339 335 332 329 325 323 321 321 321 325 324 324 324 323 317 321 322 323 325 325 325 325 326 326 326 326 325 324 324 325 327 331 335 336 336 336 337 338 342 341 341 340
338 334 333 331 325 323 321 321 320 320 319 318 318 320 322 322 321 324 325 325 325 326 326 326 326 327 327 326 326 326 326 326 326 328 330 332 333 335 336 341 340 338 339
333 331 331 331 329 322 321 321 321 321 320 320 319 321 319 319 320 319 320 322 325 325 326 325 326 324 325 326 326 323 324 323 323 323 321 325 328 329 330 334 339 340 337
330 329 329 329 329 327 327 321 322 322 321 320 319 318 318 317 317 319 319 321 320 321 321 324 323 320 318 318 317 317 317 317 318 317 321 324 324 324 326 327 333 334 338
328 328 327 325 321 323 326 323 319 324 326 322 321 318 318 319 320 319 318 318 317 318 318 320 317 316 316 317 317 317 317 318 318 318 320 324 327 328 334 331 330 332 335
328 328 325 318 318 319 322 317 317 319 325 322 321 320 319 318 319 319 316 315 317 317 317 317 316 316 316 317 317 318 318 319 319 319 318 318 326 331 334 336 332 332 334
327 328 322 319 318 321 318 317 317 318 319 318 319 320 320 319 318 317 317 318 317 317 318 318 317 317 318 318 319 318 318 319 318 319 319 316 317 324 332 333 330 330 335
326 327 322 320 319 318 318 317 317 319 318 319 318 318 318 320 319 318 318 318 316 318 318 318 317 316 318 319 318 317 318 317 317 318 318 317 317 317 326 333 331 329 332
328 327 322 320 317 317 318 319 319 319 319 318 318 318 318 318 318 319 319 318 318 318 318 318 318 318 318 319 318 318 317 317 317 318 318 317 317 317 318 327 332 332 336
327 325 322 320 318 319 320 321 322 321 320 319 319 320 321 320 318 319 319 319 318 317 318 317 316 317 317 317 317 317 317 316 317 318 317 317 317 317 317 317 326 332 334
325 323 321 320 318 319 322 322 323 323 323 322 321 321 322 322 321 319 320 319 319 317 316 317 317 317 317 317 316 316 316 316 318 319 319 318 317 317 316 317 317 327 328
324 323 321 322 323 321 322 323 325 327 326 324 324 324 324 323 318 320 320 320 319 318 318 317 317 317 317 317 317 316 316 316 318 318 318 319 318 317 317 317 317 317 325
324 324 322 321 321 321 323 325 323 323 324 324 326 326 325 321 319 318 320 320 319 319 318 318 318 318 317 317 317 316 316 316 318 317 318 319 319 318 318 319 317 317 317
325 323 321 322 322 321 320 321 323 324 325 326 326 325 324 323 321 319 320 319 319 319 319 318 319 318 317 317 317 316 316 317 318 317 318 318 319 318 319 320 320 318 317
328 327 326 326 324 321 325 326 326 328 328 327 327 324 324 323 322 321 322 321 319 320 319 319 319 319 318 318 317 316 316 318 317 317 317 318 319 317 317 318 319 320 320
330 329 328 326 325 327 325 326 326 328 327 326 324 323 323 322 321 320 320 320 319 320 320 320 319 319 319 318 317 317 318 317 318 318 317 317 318 317 317 316 316 317 318
331 330 328 328 328 327 327 327 326 324 324 323 322 321 321 318 317 317 318 319 320 319 318 320 320 319 319 318 318 318 318 319 317 317 318 317 317 317 317 317 317 317 318
334 331 329 328 329 327 326 325 324 325 321 320 321 321 318 314 313 314 316 317 319 319 319 318 318 319 319 319 318 318 318 318 319 319 318 318 318 317 317 318 317 318 318
333 332 329 329 326 324 323 321 325 323 321 316 317 317 315 313 314 313 314 317 319 320 319 318 318 318 319 318 317 318 317 317 318 319 320 317 317 317 318 318 318 317 317
331 331 326 323 323 322 319 318 319 320 320 320 320 320 316 316 316 315 316 316 318 319 318 317 317 317 316 317 316 318 317 318 318 317 317 318 318 318 318 318 318 317 317
Wind_Speed
7 10 11 13 12 12 11 12 13 13 13 13 12 12 10 10 11 11 9 8 9 10 11 11 10 9 11 10 8 7 6 7 6 5 2 4 4 4 5 6 7 7 7
12 11 11 13 11 11 12 13 13 13 12 12 12 12 12 12 10 9 8 8 7 6 4 7 10 9 9 9 8 5 3 2 5 4 2 0 2 3 4 5 7 7 9
13 13 12 11 11 11 11 10 11 11 10 10 10 10 9 9 9 10 10 9 9 7 5 3 5 7 9 9 8 6 4 1 1 2 2 1 1 1 3 4 8 8 8
13 12 10 9 11 11 10 10 10 9 9 9 9 9 9 9 9 9 9 10 10 9 8 8 7 4 5 6 6 7 6 5 3 3 2 2 2 4 3 6 7 8 9
13 10 9 9 10 10 10 9 8 7 7 7 7 7 7 7 7 7 8 10 11 11 11 9 8 9 9 7 5 5 5 4 4 3 3 3 5 5 5 6 7 8 8
11 10 9 10 10 9 9 8 7 6 5 5 5 5 6 6 6 6 7 8 10 11 11 11 10 9 8 8 8 8 7 7 5 5 4 5 7 7 9 8 9 11 10
12 10 10 10 9 8 8 7 8 7 5 5 5 4 4 4 4 4 6 7 8 8 10 10 9 9 10 9 8 8 9 9 7 7 7 7 7 9 8 10 10 10 11
13 12 10 9 9 7 6 6 6 6 7 6 6 6 6 5 5 5 6 7 9 8 8 9 9 9 9 9 9 8 8 9 9 9 9 9 10 11 10 11 12 12 13
11 11 9 8 8 7 5 5 5 5 6 5 5 6 8 7 5 8 5 7 11 6 8 9 8 9 7 6 8 9 9 9 8 9 11 11 12 12 13 13 14 16 15
10 9 7 6 6 6 5 3 3 3 3 3 4 4 5 7 7 6 6 8 7 5 5 5 7 8 7 6 8 10 12 11 8 9 9 9 11 12 14 15 17 15 19
9 8 6 5 5 6 5 2 1 4 3 1 2 3 4 4 5 5 7 9 7 5 4 3 5 7 8 9 10 11 11 9 9 7 6 8 8 10 11 14 16 17 21
12 9 7 4 3 4 3 1 2 1 3 2 3 3 5 5 5 6 7 8 7 7 6 5 6 7 8 9 9 9 7 7 7 7 7 7 5 7 10 11 14 16 20
14 9 8 5 3 4 2 1 3 2 1 2 3 5 6 6 6 6 7 8 6 5 3 4 6 7 8 7 5 5 6 7 7 7 8 9 8 7 7 10 16 15 19
12 11 9 7 5 3 1 1 2 1 2 0 3 5 7 7 7 7 7 7 6 5 6 5 7 7 8 5 5 6 7 8 9 10 10 10 10 10 7 7 9 14 18
14 14 13 10 8 6 2 2 2 4 4 4 5 7 7 8 9 9 9 9 7 6 7 8 8 8 7 7 7 8 10 12 12 12 13 14 12 11 10 7 5 9 13
14 15 13 12 11 7 5 5 5 5 6 6 7 9 11 11 12 11 10 9 9 8 8 9 10 9 10 9 10 10 12 14 14 14 13 15 16 14 13 12 9 8 9
16 16 17 14 12 11 10 10 9 8 9 9 10 13 14 15 16 15 12 13 11 10 13 10 9 10 10 9 12 14 15 14 13 13 13 13 15 17 16 16 14 11 12
15 16 17 13 13 15 15 14 12 12 13 13 14 17 18 17 17 17 15 15 12 12 10 11 11 11 10 11 14 15 15 15 14 13 13 13 13 15 15 15 16 14 13
16 16 19 19 19 18 16 15 15 15 17 16 15 15 18 16 16 16 15 16 16 13 12 12 12 10 12 13 14 15 15 15 14 12 11 11 11 12 13 14 15 15 15
16 19 21 21 21 20 18 17 15 15 15 13 11 12 15 17 17 16 14 16 16 14 14 12 13 12 13 13 15 17 16 15 13 11 9 7 5 3 6 8 10 15 17
17 18 20 19 20 17 13 12 11 10 10 10 10 14 15 12 14 15 14 14 15 16 15 13 12 13 14 12 14 15 14 10 6 5 4 7 7 3 3 4 5 8 13
18 19 17 18 16 12 10 11 12 10 10 12 11 12 11 11 10 13 16 19 17 17 15 16 13 13 13 11 11 13 6 7 1 8 8 4 7 2 4 5 7 9 12
16 16 16 15 11 9 8 10 10 9 8 7 8 9 9 11 13 15 18 20 19 21 20 18 15 14 15 11 10 9 5 4 8 5 3 8 7 9 10 9 10 11 12
14 13 12 9 7 8 9 9 7 6 6 6 8 10 13 16 17 17 17 17 17 18 20 24 21 17 13 14 11 12 13 10 4 5 4 6 12 11 12 10 12 12 14
8 7 7 6 7 8 8 8 9 9 7 10 13 15 14 16 15 15 15 15 16 16 17 21 23 19 13 12 15 12 12 12 12 9 8 10 16 12 11 12 13 14 15
10 11 11 8 9 9 9 11 13 12 10 11 12 12 13 14 15 15 16 14 14 15 19 22 21 20 18 16 16 14 14 11 8 7 6 11 15 15 13 15 13 12 10
Wind_Direction
147 134 123 108 97 90 86 79 75 75 73 73 71 70 73 71 71 72 71 65 60 53 50 44 46 45 40 36 42 75 51 50 60 51 89 76 103 130 139 138 136 140 145
137 130 125 114 98 90 88 81 77 72 70 71 71 68 63 62 60 66 70 63 62 57 47 36 38 31 25 27 34 46 81 71 49 58 71 127 105 138 164 170 151 175 169
127 121 124 111 98 96 90 84 80 84 80 79 74 72 66 66 68 64 64 65 52 45 38 27 21 19 22 11 11 13 14 45 313 19 44 93 167 266 186 179 176 179 178
125 122 112 107 100 97 91 87 80 79 75 68 67 65 63 58 55 48 47 42 37 30 27 24 13 357 6 2 1 360 1 5 344 283 323 314 276 273 243 219 200 194 188
129 124 115 109 101 93 88 82 79 73 71 69 65 61 52 44 45 49 54 45 38 27 15 7 4 358 359 355 336 324 331 336 333 328 295 280 269 268 273 232 222 214 200
131 123 119 110 107 96 82 76 74 75 71 67 63 49 46 43 42 48 49 40 36 32 27 19 9 351 342 344 341 330 322 314 310 300 290 273 241 250 257 251 221 206 218
137 131 125 121 117 102 87 79 79 72 63 51 44 40 25 25 33 29 25 17 15 18 17 15 9 5 360 349 342 330 319 304 299 282 278 270 253 254 270 233 241 227 219
144 139 138 136 132 125 112 103 95 87 83 71 62 52 28 14 4 354 352 359 348 350 2 359 354 351 348 354 356 351 340 323 298 283 280 272 260 250 255 227 231 238 235
149 146 146 147 152 159 140 125 114 103 95 82 55 45 39 29 7 355 346 341 351 345 353 359 16 14 3 0 354 354 353 327 305 291 288 277 265 259 254 240 234 237 238
155 155 162 171 179 176 168 144 143 151 126 88 58 55 34 33 29 15 2 340 347 347 359 29 28 15 16 355 347 341 337 335 314 302 290 269 265 265 259 253 241 246 230
170 175 178 197 211 205 192 194 213 191 194 39 22 27 19 25 22 8 333 320 320 316 314 306 335 345 340 324 324 330 335 330 317 307 292 282 285 273 271 259 248 245 230
186 191 197 190 184 192 199 151 25 229 190 291 315 312 338 329 345 342 345 325 315 319 289 286 321 342 347 333 323 331 330 335 332 309 296 297 280 291 292 272 247 236 229
192 199 196 198 195 177 180 63 55 107 190 319 297 295 296 297 304 320 340 344 331 317 318 311 316 323 334 327 317 320 324 327 323 325 303 290 281 288 300 267 249 238 227
201 217 210 209 209 208 188 13 29 22 314 305 7 340 297 290 293 301 315 331 338 318 304 302 313 321 324 319 316 316 316 314 306 303 300 303 291 284 290 305 252 236 229
216 219 209 207 210 208 202 332 344 336 328 289 303 301 310 286 288 291 296 306 313 305 304 300 306 312 314 305 306 313 314 306 299 289 283 286 288 284 274 273 289 233 226
214 209 205 207 210 219 255 286 302 313 307 294 292 299 307 299 285 281 277 284 297 295 295 299 297 296 302 299 294 299 305 303 294 282 276 271 270 273 273 264 250 246 236
212 211 212 215 221 237 256 266 274 283 286 285 294 296 302 297 293 277 267 272 277 285 286 288 295 288 287 287 292 296 296 295 290 281 275 268 263 266 269 261 250 238 242
214 218 220 222 230 246 257 262 272 289 290 288 292 297 300 298 297 275 264 267 273 282 281 278 288 293 286 292 301 297 293 289 285 281 271 265 261 258 262 257 250 246 241
221 222 225 232 242 251 257 266 280 293 296 287 296 293 296 292 290 274 267 268 272 270 276 276 276 276 285 294 302 302 296 290 285 279 261 262 263 255 250 253 246 246 247
229 235 238 244 250 256 259 267 278 289 292 293 292 295 300 290 284 279 273 277 267 261 271 270 267 274 277 286 296 300 296 289 282 272 243 227 243 265 254 252 253 253 253
235 237 241 244 249 253 262 273 284 289 294 300 299 311 309 292 287 285 278 273 263 253 264 264 267 274 278 284 297 300 302 289 263 238 242 242 217 249 270 289 273 268 262
225 230 232 239 245 251 269 283 283 294 300 302 310 314 309 300 298 302 292 282 266 261 261 260 252 267 274 268 283 296 301 303 291 224 290 246 211 318 295 303 301 289 276
217 220 231 237 242 257 272 275 279 290 299 304 312 319 322 325 317 310 303 291 271 261 258 261 252 247 265 265 257 268 286 286 317 266 217 274 249 270 289 281 290 286 286
226 222 230 238 246 251 256 258 259 261 291 303 311 312 321 329 329 323 317 301 279 264 251 258 264 252 241 258 258 250 253 262 282 289 246 264 282 285 286 279 286 279 279
225 215 222 225 238 242 245 255 251 259 275 304 312 315 317 320 321 321 322 311 292 271 265 263 263 246 234 257 259 251 259 249 247 252 281 293 296 285 287 288 286 284 279
166 167 180 201 226 233 251 256 258 269 283 293 299 306 317 322 323 323 325 317 302 285 265 270 261 258 249 244 248 249 249 250 238 232 254 277 296 300 298 291 288 283 275